[[{"header":{"parameterUnit":"m.s-1","parameterCategory":2,"la1":30.2992,"la2":30.254,"lo1":-89.0895,"lo2":-89.0443,"dy":0.0025,"dx":0.0025,"nx":19,"ny":19,"refTime":"2026-05-01T21:00:00:Z","depth":"0","parameterNumber":2,"parameterNumberName":"U-component_of_CURRENTS"},"data":[0,0,0,-0.3179,-0.3182,-0.3281,-0.3282,-0.3358,-0.3359,0,0,0,0,0,0,0,0,0,0,0,-0.3126,-0.3127,-0.3179,-0.3182,-0.3281,-0.3282,-0.3358,-0.3359,0,0,0,0,0,0,0,0,0,0,0,-0.3126,-0.3127,-0.3127,-0.3182,-0.3281,-0.3282,-0.3358,-0.3293,0,0,0,0,0,0,0,0,0,0,-0.3202,-0.3151,-0.3126,-0.3127,-0.3183,-0.3281,-0.3282,-0.3291,-0.3297,-0.3302,0,-0.3313,0,-0.335,-0.3364,-0.3364,0,0,0,-0.3173,-0.3146,-0.319,-0.3127,-0.3184,-0.3281,-0.3234,-0.3295,-0.3302,-0.331,-0.3314,-0.3318,-0.3351,-0.3364,-0.3365,-0.3491,-0.3492,0,0,-0.3167,-0.3129,-0.3185,-0.3195,-0.3204,-0.3231,-0.3237,-0.33,-0.3293,-0.3315,-0.3321,-0.3352,-0.3365,-0.3365,-0.349,-0.3491,0,0,0,-0.3158,-0.3125,-0.3168,-0.319,-0.322,-0.3234,-0.3241,-0.329,-0.3309,-0.3322,-0.3353,-0.3365,-0.3366,-0.349,-0.3491,-0.3536,0,0,0,-0.3154,-0.3121,-0.3165,-0.3141,-0.3218,-0.3261,-0.3229,-0.3304,-0.3314,-0.3353,-0.3365,-0.3367,-0.3489,-0.349,-0.3532,-0.3573,0,0,0,-0.3123,-0.3118,-0.3131,-0.314,-0.3192,-0.3262,-0.3284,-0.3307,-0.3333,-0.3364,-0.3367,-0.3488,-0.349,-0.353,-0.3568,-0.3617,0,0,0,-0.3078,-0.3109,-0.3129,-0.3186,-0.3191,-0.3308,-0.3284,-0.335,-0.3381,-0.3366,-0.3489,-0.3491,-0.3529,-0.3564,-0.3613,-0.3547,-0.3558,0,0,-0.3101,-0.311,-0.3153,-0.3176,-0.3288,-0.3294,-0.3406,-0.342,-0.3413,-0.346,-0.3464,-0.3533,-0.3567,-0.3616,-0.3664,-0.367,0,0,0,-0.3154,-0.3172,-0.3214,-0.3279,-0.3366,-0.3442,-0.3468,-0.3486,-0.3524,-0.3444,-0.3562,-0.3583,-0.3612,-0.3565,-0.3572,-0.3461,-0.35,-0.35,-0.35,-0.3089,-0.3177,-0.3254,-0.3361,-0.3439,-0.3541,-0.3602,-0.3629,-0.3597,-0.3622,-0.364,-0.3739,-0.3691,-0.3695,-0.3582,-0.3652,-0.3652,-0.3653,-0.3653,-0.3114,-0.3152,-0.3276,-0.3373,-0.3486,-0.3573,-0.3711,-0.3712,-0.3787,-0.373,-0.3754,-0.3641,-0.3704,-0.3581,-0.3656,-0.3655,-0.3655,-0.3655,-0.3654,-0.3044,-0.3076,-0.3156,-0.3301,-0.3435,-0.3575,-0.3704,-0.3787,-0.3831,-0.3875,-0.3804,-0.3801,-0.3676,-0.3865,-0.3866,-0.3866,-0.3866,-0.3867,-0.3867,-0.2912,-0.3011,-0.305,-0.3225,-0.33,-0.3455,-0.369,-0.3778,-0.3868,-0.3876,-0.3874,-0.3702,-0.3804,-0.3775,-0.3873,-0.3872,-0.3871,-0.3871,-0.387,-0.2783,-0.2828,-0.2887,-0.2952,-0.3155,-0.3243,-0.3532,-0.3733,-0.3863,-0.3887,-0.3743,-0.3877,-0.3861,-0.3854,-0.3827,-0.3933,-0.3933,-0.3933,-0.3933,-0.2645,-0.2693,-0.2709,-0.2779,-0.2927,-0.3125,-0.3243,-0.3453,-0.3618,-0.361,-0.3708,-0.3613,-0.3615,-0.3579,-0.3579,-0.3544,-0.3576,-0.3576,-0.3575,-0.2522,-0.2565,-0.2509,-0.2626,-0.2791,-0.2955,-0.2985,-0.316,-0.3402,-0.3552,-0.3573,-0.3588,-0.3438,-0.3451,-0.3382,-0.339,-0.333,0,0]},{"header":{"parameterUnit":"m.s-1","parameterCategory":2,"la1":30.2992,"la2":30.254,"lo1":-89.0895,"lo2":-89.0443,"dy":0.0025,"dx":0.0025,"nx":19,"ny":19,"refTime":"2026-05-01T21:00:00:Z","depth":"0","parameterNumber":3,"parameterNumberName":"V-component_of_CURRENTS"},"data":[0,0,0,-0.0394,-0.0392,-0.0267,-0.0266,-0.0063,-0.0061,0,0,0,0,0,0,0,0,0,0,0,-0.0439,-0.0439,-0.0394,-0.0391,-0.0267,-0.0266,-0.0063,-0.0061,0,0,0,0,0,0,0,0,0,0,0,-0.0439,-0.0439,-0.0438,-0.0391,-0.0267,-0.0266,-0.0064,-0.0163,0,0,0,0,0,0,0,0,0,0,-0.0287,-0.0351,-0.0439,-0.0438,-0.0391,-0.0267,-0.0266,-0.0168,-0.0157,-0.0114,0,-0.0112,0,-0.009,-0.0049,-0.0048,0,0,0,-0.0368,-0.0361,-0.0324,-0.0438,-0.039,-0.0267,-0.0316,-0.0162,-0.0149,-0.01,-0.0109,-0.0102,-0.0086,-0.0048,-0.0047,0.0058,0.0058,0,0,-0.0375,-0.0411,-0.0333,-0.0317,-0.0378,-0.0321,-0.0313,-0.0154,-0.0151,-0.0109,-0.0097,-0.0083,-0.0046,-0.0045,0.0058,0.0058,0,0,0,-0.0411,-0.0416,-0.0383,-0.0325,-0.031,-0.0317,-0.0308,-0.0158,-0.0147,-0.0095,-0.0081,-0.0045,-0.0043,0.0059,0.0058,-0.0072,0,0,0,-0.0414,-0.0438,-0.0387,-0.0406,-0.0314,-0.024,-0.0316,-0.0157,-0.0139,-0.0082,-0.0045,-0.0041,0.0059,0.0058,-0.0068,-0.0145,0,0,0,-0.0441,-0.0441,-0.0433,-0.0409,-0.0364,-0.0243,-0.0221,-0.0153,-0.0131,-0.0048,-0.0041,0.0059,0.0059,-0.0065,-0.0138,-0.0114,0,0,0,-0.0472,-0.0505,-0.0434,-0.0467,-0.0366,-0.0327,-0.0222,-0.0173,-0.0114,-0.0044,0.0059,0.0058,-0.0064,-0.0133,-0.0111,-0.0075,-0.0088,0,0,-0.0539,-0.0514,-0.0536,-0.047,-0.0487,-0.0341,-0.0327,-0.0202,-0.0103,0.0015,0.0018,-0.007,-0.0137,-0.0113,-0.0108,-0.012,0,0,0,-0.0574,-0.0597,-0.0587,-0.0578,-0.0509,-0.0445,-0.0308,-0.0232,-0.0125,-0.0073,-0.0044,-0.0083,-0.0063,-0.0034,-0.0043,0.032,0.0056,0.0056,0.0056,-0.0709,-0.0681,-0.0731,-0.0687,-0.0645,-0.0504,-0.0435,-0.0301,-0.0193,-0.0165,-0.017,-0.0221,-0.0192,-0.0198,0.0174,-0.0136,-0.0136,-0.0137,-0.0137,-0.0853,-0.0896,-0.0848,-0.0885,-0.0788,-0.0741,-0.0555,-0.0457,-0.0326,-0.0254,-0.0227,-0.0152,-0.0216,0.0186,-0.0145,-0.0144,-0.0143,-0.0142,-0.0141,-0.096,-0.0982,-0.099,-0.1034,-0.102,-0.0894,-0.0848,-0.0671,-0.0467,-0.0442,-0.0317,-0.0314,0.0029,-0.04,-0.04,-0.04,-0.04,-0.0401,-0.0401,-0.107,-0.1083,-0.1169,-0.1195,-0.1227,-0.1201,-0.1015,-0.0906,-0.0648,-0.0459,-0.0456,0.0064,-0.0299,-0.0301,-0.0405,-0.0404,-0.0403,-0.0403,-0.0403,-0.1215,-0.1201,-0.1355,-0.1415,-0.15,-0.1539,-0.1341,-0.1049,-0.085,-0.071,0.0013,-0.0422,-0.0361,-0.0351,-0.0352,-0.0463,-0.0463,-0.0463,-0.0463,-0.1297,-0.1309,-0.1522,-0.1667,-0.1758,-0.1709,-0.1604,-0.1196,-0.0424,0.0033,0.0195,0.0305,0.0291,0.0399,0.0392,0.0411,0.0497,0.0499,0.05,-0.1389,-0.1454,-0.1625,-0.177,-0.189,-0.1881,-0.1766,-0.1222,-0.0009,0.0579,0.0697,0.0656,0.0858,0.0807,0.1008,0.0969,0.101,0,0]}],[{"header":{"parameterUnit":"m.s-1","parameterCategory":2,"la1":30.2992,"la2":30.254,"lo1":-89.0895,"lo2":-89.0443,"dy":0.0025,"dx":0.0025,"nx":19,"ny":19,"refTime":"2026-05-01T21:00:00:Z","depth":"2","parameterNumber":2,"parameterNumberName":"U-component_of_CURRENTS"},"data":[0,0,0,-0.3088,-0.309,-0.3192,-0.3192,-0.327,-0.3271,0,0,0,0,0,0,0,0,0,0,0,-0.3035,-0.3036,-0.3087,-0.309,-0.3192,-0.3192,-0.327,-0.3271,0,0,0,0,0,0,0,0,0,0,0,-0.3035,-0.3036,-0.3036,-0.3091,-0.3192,-0.3192,-0.327,-0.3204,0,0,0,0,0,0,0,0,0,0,-0.3111,-0.3062,-0.3036,-0.3036,-0.3091,-0.3192,-0.3192,-0.3201,-0.3208,-0.3212,0,-0.3224,0,-0.326,-0.3276,-0.3276,0,0,0,-0.3082,-0.3056,-0.31,-0.3036,-0.3092,-0.3192,-0.3144,-0.3205,-0.3213,-0.322,-0.3226,-0.323,-0.3261,-0.3276,-0.3276,-0.3401,-0.3402,0,0,-0.3076,-0.304,-0.3095,-0.3104,-0.3114,-0.314,-0.3147,-0.3211,-0.3206,-0.3226,-0.3232,-0.3263,-0.3276,-0.3277,-0.34,-0.3401,0,0,0,-0.3066,-0.3035,-0.3078,-0.31,-0.3129,-0.3144,-0.3151,-0.3202,-0.3221,-0.3233,-0.3264,-0.3277,-0.3278,-0.3399,-0.3401,-0.3446,0,0,0,-0.3062,-0.3031,-0.3075,-0.3052,-0.3128,-0.3173,-0.3141,-0.3216,-0.3225,-0.3263,-0.3277,-0.3278,-0.3398,-0.34,-0.3443,-0.3482,0,0,0,-0.3032,-0.3028,-0.3042,-0.3051,-0.3103,-0.3173,-0.3194,-0.3219,-0.3244,-0.3276,-0.3279,-0.3398,-0.34,-0.344,-0.3476,-0.3524,0,0,0,-0.2989,-0.3019,-0.304,-0.3095,-0.3102,-0.3217,-0.3194,-0.3261,-0.3293,-0.3277,-0.3399,-0.3401,-0.3439,-0.3473,-0.3521,-0.3436,-0.3444,0,0,-0.3011,-0.302,-0.3062,-0.3085,-0.3193,-0.3202,-0.3311,-0.3329,-0.3324,-0.337,-0.3374,-0.3444,-0.3476,-0.3523,-0.355,-0.3555,0,0,0,-0.3061,-0.3079,-0.312,-0.3184,-0.3268,-0.3344,-0.3374,-0.3393,-0.3433,-0.3354,-0.3472,-0.3492,-0.3519,-0.3462,-0.3467,-0.341,-0.341,-0.3409,-0.3409,-0.3001,-0.3084,-0.3159,-0.3263,-0.3339,-0.3441,-0.3502,-0.3532,-0.3502,-0.353,-0.3548,-0.3645,-0.3585,-0.3587,-0.356,-0.356,-0.3561,-0.3561,-0.3561,-0.3023,-0.306,-0.318,-0.3275,-0.3385,-0.3472,-0.3608,-0.3613,-0.3689,-0.3636,-0.3659,-0.3537,-0.3595,-0.3565,-0.3564,-0.3564,-0.3563,-0.3563,-0.3563,-0.2957,-0.2987,-0.3066,-0.3206,-0.3339,-0.3476,-0.3602,-0.3687,-0.3733,-0.3777,-0.3695,-0.3692,-0.3667,-0.3769,-0.3769,-0.377,-0.377,-0.377,-0.3771,-0.2829,-0.2926,-0.2964,-0.3135,-0.3208,-0.336,-0.359,-0.3675,-0.3758,-0.3763,-0.3762,-0.3716,-0.3709,-0.3681,-0.3777,-0.3776,-0.3775,-0.3774,-0.3774,-0.2706,-0.2751,-0.2807,-0.2871,-0.3065,-0.3137,-0.3426,-0.3613,-0.3742,-0.3758,-0.3758,-0.3756,-0.3737,-0.3731,-0.3704,-0.3801,-0.3801,-0.3801,-0.3801,-0.2573,-0.262,-0.2635,-0.27,-0.2839,-0.3015,-0.3077,-0.3189,-0.3406,-0.3411,-0.3427,-0.332,-0.333,-0.3281,-0.3285,-0.3246,-0.3224,-0.3222,-0.3221,-0.2456,-0.2496,-0.2442,-0.2551,-0.2704,-0.2832,-0.2762,-0.2658,-0.2827,-0.3187,-0.3211,-0.3785,-0.3669,-0.3668,-0.3624,-0.3619,-0.3569,0,0]},{"header":{"parameterUnit":"m.s-1","parameterCategory":2,"la1":30.2992,"la2":30.254,"lo1":-89.0895,"lo2":-89.0443,"dy":0.0025,"dx":0.0025,"nx":19,"ny":19,"refTime":"2026-05-01T21:00:00:Z","depth":"2","parameterNumber":3,"parameterNumberName":"V-component_of_CURRENTS"},"data":[0,0,0,-0.031,-0.0308,-0.0188,-0.0187,0.0013,0.0015,0,0,0,0,0,0,0,0,0,0,0,-0.0354,-0.0353,-0.031,-0.0308,-0.0188,-0.0187,0.0013,0.0015,0,0,0,0,0,0,0,0,0,0,0,-0.0354,-0.0353,-0.0353,-0.0307,-0.0188,-0.0187,0.0012,-0.0084,0,0,0,0,0,0,0,0,0,0,-0.0204,-0.0267,-0.0353,-0.0353,-0.0307,-0.0188,-0.0187,-0.0089,-0.0078,-0.0036,0,-0.0034,0,-0.0013,0.0027,0.0028,0,0,0,-0.0284,-0.0277,-0.0241,-0.0353,-0.0306,-0.0188,-0.0235,-0.0083,-0.0071,-0.0021,-0.0031,-0.0024,-0.0009,0.0028,0.0029,0.0133,0.0133,0,0,-0.0291,-0.0327,-0.025,-0.0234,-0.0296,-0.0239,-0.0232,-0.0076,-0.0073,-0.0031,-0.0019,-0.0006,0.0029,0.0031,0.0133,0.0133,0,0,0,-0.0326,-0.0332,-0.03,-0.0242,-0.0228,-0.0236,-0.0228,-0.008,-0.0069,-0.0017,-0.0004,0.003,0.0033,0.0133,0.0133,0.0003,0,0,0,-0.0329,-0.0353,-0.0303,-0.0322,-0.0232,-0.0161,-0.0235,-0.008,-0.0061,-0.0005,0.003,0.0034,0.0134,0.0133,0.0007,-0.0069,0,0,0,-0.0355,-0.0356,-0.0348,-0.0325,-0.0282,-0.0163,-0.0142,-0.0075,-0.0054,0.0028,0.0035,0.0134,0.0133,0.0011,-0.0062,-0.004,0,0,0,-0.0385,-0.0418,-0.0349,-0.0382,-0.0284,-0.0246,-0.0143,-0.0095,-0.0037,0.0031,0.0134,0.0133,0.0012,-0.0057,-0.0036,-0.0006,-0.0019,0,0,-0.0451,-0.0427,-0.0448,-0.0384,-0.0401,-0.0259,-0.0245,-0.0123,-0.0026,0.0091,0.0093,0.0006,-0.0061,-0.0039,-0.0039,-0.0051,0,0,0,-0.0485,-0.0507,-0.0498,-0.0489,-0.0422,-0.0361,-0.0227,-0.0153,-0.0048,0.0003,0.0031,-0.0007,0.0012,0.0037,0.0028,0.013,0.013,0.0131,0.0131,-0.0617,-0.059,-0.0638,-0.0595,-0.0555,-0.0418,-0.0352,-0.022,-0.0114,-0.0087,-0.0094,-0.0145,-0.012,-0.0126,-0.0059,-0.0059,-0.006,-0.006,-0.006,-0.0757,-0.08,-0.0753,-0.0789,-0.0695,-0.065,-0.0469,-0.0374,-0.0247,-0.0176,-0.015,-0.0079,-0.0144,-0.007,-0.0068,-0.0067,-0.0066,-0.0065,-0.0065,-0.0863,-0.0885,-0.0893,-0.0936,-0.0925,-0.0801,-0.0758,-0.0587,-0.0387,-0.0364,-0.0245,-0.0242,-0.0213,-0.0323,-0.0323,-0.0324,-0.0324,-0.0324,-0.0324,-0.0971,-0.0984,-0.107,-0.1095,-0.1127,-0.1103,-0.0925,-0.0819,-0.057,-0.0387,-0.0384,-0.0231,-0.0223,-0.0225,-0.0328,-0.0328,-0.0327,-0.0327,-0.0326,-0.1114,-0.1102,-0.1253,-0.1313,-0.1396,-0.1429,-0.1242,-0.0962,-0.0772,-0.0638,-0.0355,-0.0353,-0.0294,-0.0284,-0.0285,-0.0398,-0.0398,-0.0398,-0.0398,-0.1196,-0.1208,-0.1417,-0.1558,-0.1646,-0.1593,-0.148,-0.109,-0.0667,-0.0403,-0.0403,-0.0359,-0.0355,-0.0295,-0.0284,-0.0283,-0.0396,-0.0396,-0.0396,-0.1287,-0.1351,-0.1519,-0.1659,-0.1774,-0.1754,-0.1614,-0.1097,-0.0484,-0.0398,-0.0419,-0.0394,-0.0325,-0.0321,-0.022,-0.0207,-0.0201,0,0]}],[{"header":{"parameterUnit":"m.s-1","parameterCategory":2,"la1":30.2992,"la2":30.254,"lo1":-89.0895,"lo2":-89.0443,"dy":0.0025,"dx":0.0025,"nx":19,"ny":19,"refTime":"2026-05-01T21:00:00:Z","depth":"4","parameterNumber":2,"parameterNumberName":"U-component_of_CURRENTS"},"data":[0,0,0,-0.2232,-0.2236,-0.2453,-0.2454,-0.2623,-0.2624,0,0,0,0,0,0,0,0,0,0,0,-0.2158,-0.2159,-0.2231,-0.2236,-0.2453,-0.2454,-0.2622,-0.2624,0,0,0,0,0,0,0,0,0,0,0,-0.2157,-0.2159,-0.2161,-0.2237,-0.2453,-0.2454,-0.2622,-0.2486,0,0,0,0,0,0,0,0,0,0,-0.2289,-0.2237,-0.2159,-0.2161,-0.2238,-0.2453,-0.2454,-0.2481,-0.2495,-0.2492,0,-0.2534,0,-0.2579,-0.2632,-0.2633,0,0,0,-0.224,-0.2226,-0.2283,-0.2161,-0.224,-0.2452,-0.2356,-0.249,-0.2505,-0.251,-0.2537,-0.2544,-0.2582,-0.2633,-0.2634,-0.2804,-0.2805,0,0,-0.2228,-0.2197,-0.2273,-0.2293,-0.2306,-0.2349,-0.2363,-0.25,-0.2518,-0.2538,-0.2549,-0.2585,-0.2634,-0.2635,-0.2803,-0.2804,0,0,0,-0.2191,-0.2189,-0.2245,-0.2285,-0.2332,-0.2355,-0.2371,-0.2512,-0.2531,-0.2551,-0.2587,-0.2635,-0.2636,-0.2802,-0.2804,-0.2858,0,0,0,-0.2184,-0.2167,-0.2239,-0.2223,-0.233,-0.244,-0.238,-0.2522,-0.2539,-0.2586,-0.2635,-0.2637,-0.2801,-0.2803,-0.2854,-0.2883,0,0,0,-0.2146,-0.2163,-0.2191,-0.2221,-0.2314,-0.2439,-0.2468,-0.2527,-0.256,-0.2633,-0.2638,-0.2801,-0.2803,-0.2851,-0.2878,-0.292,0,0,0,-0.2103,-0.2149,-0.2191,-0.2267,-0.2311,-0.2458,-0.2468,-0.2586,-0.2654,-0.2635,-0.2801,-0.2804,-0.285,-0.2874,-0.2916,-0.2552,0,0,0,-0.213,-0.2152,-0.2199,-0.2241,-0.237,-0.2428,-0.2572,-0.2662,-0.2682,-0.2746,-0.2752,-0.2855,-0.2877,-0.2919,-0.2684,0,0,0,0,-0.2188,-0.2219,-0.2268,-0.2359,-0.2466,-0.2585,-0.2678,-0.2722,-0.2821,-0.2733,-0.2885,-0.2898,-0.2921,-0.2701,-0.2814,-0.2814,-0.2814,-0.2813,-0.2813,-0.2148,-0.2231,-0.2323,-0.2441,-0.2545,-0.2704,-0.2799,-0.2877,-0.2879,-0.2937,-0.2963,-0.3063,-0.2833,-0.2985,-0.2985,-0.2985,-0.2985,-0.2986,-0.2986,-0.2167,-0.2209,-0.2354,-0.2472,-0.2619,-0.2751,-0.2922,-0.2964,-0.3079,-0.3052,-0.3071,-0.28,-0.2992,-0.2991,-0.299,-0.2989,-0.2989,-0.2988,-0.2988,-0.2102,-0.2133,-0.2248,-0.2426,-0.2606,-0.2784,-0.2917,-0.3052,-0.3129,-0.3179,-0.2935,-0.3109,-0.3079,-0.3187,-0.3187,-0.3187,-0.3188,-0.3188,-0.3188,-0.1961,-0.2082,-0.2163,-0.2374,-0.2485,-0.2666,-0.2923,-0.2992,-0.3118,-0.2973,-0.3199,-0.3131,-0.3124,-0.3092,-0.3193,-0.3192,-0.3192,-0.3191,-0.3191,-0.1835,-0.1911,-0.2003,-0.2109,-0.2344,-0.2454,-0.275,-0.2819,-0.2868,-0.2814,-0.2854,-0.2869,-0.2816,-0.2817,-0.2772,-0.2782,-0.2778,-0.2774,0,-0.1716,-0.177,-0.1851,-0.1946,-0.2061,-0.2303,-0.231,-0.2453,-0.2571,-0.2482,-0.2851,-0.2892,-0.2901,-0.2838,-0.2833,-0.2776,0,0,0,-0.162,-0.1661,-0.1658,-0.1791,-0.1904,-0.2056,-0.2295,-0.2252,-0.2566,-0.2512,-0.2665,-0.2694,-0.2996,-0.3209,-0.3165,-0.3157,-0.3103,0,0]},{"header":{"parameterUnit":"m.s-1","parameterCategory":2,"la1":30.2992,"la2":30.254,"lo1":-89.0895,"lo2":-89.0443,"dy":0.0025,"dx":0.0025,"nx":19,"ny":19,"refTime":"2026-05-01T21:00:00:Z","depth":"4","parameterNumber":3,"parameterNumberName":"V-component_of_CURRENTS"},"data":[0,0,0,-0.0153,-0.0152,-0.0075,-0.0074,0.0081,0.0083,0,0,0,0,0,0,0,0,0,0,0,-0.018,-0.018,-0.0153,-0.0152,-0.0075,-0.0074,0.0081,0.0083,0,0,0,0,0,0,0,0,0,0,0,-0.018,-0.018,-0.018,-0.0152,-0.0075,-0.0074,0.0081,0.0013,0,0,0,0,0,0,0,0,0,0,-0.0066,-0.0112,-0.018,-0.018,-0.0151,-0.0075,-0.0074,0.001,0.0018,0.0057,0,0.0053,0,0.0065,0.0093,0.0093,0,0,0,-0.0132,-0.0119,-0.0097,-0.018,-0.0151,-0.0075,-0.0104,0.0014,0.0023,0.0067,0.0055,0.0061,0.0068,0.0094,0.0094,0.0176,0.0176,0,0,-0.0136,-0.016,-0.0104,-0.0092,-0.0149,-0.0107,-0.0102,0.0019,0.0021,0.0056,0.0065,0.007,0.0095,0.0096,0.0176,0.0176,0,0,0,-0.0162,-0.0163,-0.0145,-0.0098,-0.0093,-0.0105,-0.0099,0.0016,0.0021,0.0066,0.0072,0.0095,0.0097,0.0176,0.0176,0.0063,0,0,0,-0.0163,-0.0179,-0.0147,-0.016,-0.0096,-0.0047,-0.0105,0.0013,0.0027,0.0071,0.0095,0.0099,0.0177,0.0176,0.0067,-0.0004,0,0,0,-0.0181,-0.0181,-0.0178,-0.0161,-0.0137,-0.0049,-0.0035,0.0017,0.003,0.0093,0.0099,0.0177,0.0176,0.007,0.0003,0.0012,0,0,0,-0.0198,-0.0225,-0.0179,-0.0209,-0.0138,-0.012,-0.0036,-0.0005,0.0038,0.0096,0.0176,0.0176,0.0071,0.0007,0.0015,-0.0042,0,0,0,-0.0246,-0.0231,-0.0251,-0.0208,-0.0234,-0.0128,-0.0127,-0.0032,0.0049,0.0145,0.0147,0.0066,0.0003,0.0013,-0.0071,0,0,0,0,-0.0276,-0.0296,-0.0294,-0.0298,-0.0256,-0.0221,-0.0118,-0.0059,0.0024,0.007,0.0087,0.0051,0.0061,0.0038,0.0173,0.0174,0.0174,0.0174,0.0174,-0.0367,-0.0358,-0.0404,-0.0387,-0.0366,-0.0274,-0.0229,-0.0125,-0.0034,-0.0013,-0.0024,-0.0076,-0.0105,0.0009,0.0008,0.0008,0.0007,0.0007,0.0007,-0.0471,-0.0506,-0.0495,-0.0538,-0.0487,-0.0464,-0.0333,-0.0259,-0.0164,-0.0097,-0.008,-0.0061,-0.0004,-0.0002,0.0,0.0001,0.0002,0.0003,0.0003,-0.0537,-0.0557,-0.0586,-0.0649,-0.0669,-0.0594,-0.0576,-0.0447,-0.0287,-0.0275,-0.0231,-0.0135,-0.0141,-0.0241,-0.0242,-0.0242,-0.0242,-0.0242,-0.0243,-0.0591,-0.0623,-0.0712,-0.0768,-0.0818,-0.0827,-0.0717,-0.064,-0.047,-0.0373,-0.0296,-0.0159,-0.0151,-0.0153,-0.0247,-0.0246,-0.0246,-0.0245,-0.0245,-0.0668,-0.0681,-0.0822,-0.0898,-0.1016,-0.101,-0.0926,-0.0739,-0.0651,-0.054,-0.039,-0.0382,-0.0337,-0.0324,-0.033,-0.0481,-0.0482,-0.0483,0,-0.0707,-0.0729,-0.0921,-0.1066,-0.1155,-0.1122,-0.1024,-0.0899,-0.0676,-0.0662,-0.0638,-0.0477,-0.0467,-0.0423,-0.0413,-0.0426,0,0,0,-0.0758,-0.0818,-0.0958,-0.111,-0.122,-0.1093,-0.0991,-0.092,-0.0712,-0.0642,-0.0511,-0.0503,-0.0437,-0.0261,-0.017,-0.016,-0.0157,0,0]}]]